KC3HIX Weather Reports


Display with metric or nautical units.
time (UTC)temp
F
wind
direction
speed
MPH
gust
MPH
rain 1hr
in
rain 24hr
in
rain mn
in
humidity
%
barometer
mb
20260504050504 41 0 0.0 0.0 0.00 0.00 0.00 82 1013.4
20260504050004 41 0 0.0 0.0 0.00 0.00 0.00 81 1013.4
20260504045504 41 0 0.0 0.0 0.00 0.00 0.00 81 1013.7
20260504045004 42 0 0.0 0.0 0.00 0.00 0.00 80 1013.4
20260504044504 42 0 0.0 0.0 0.00 0.00 0.00 80 1013.4
20260504044003 42 0 0.0 0.0 0.00 0.00 0.00 79 1013.7
20260504043525 42 0 0.0 0.0 0.00 0.00 0.00 80 1013.4
20260504043004 42 0 0.0 0.0 0.00 0.00 0.00 80 1013.4
20260504042525 42 0 0.0 0.0 0.00 0.00 0.00 79 1013.4
20260504042004 42 0 0.0 0.0 0.00 0.00 0.00 79 1013.7
20260504041503 42 0 0.0 0.0 0.00 0.00 0.00 78 1013.4
20260504041004 43 0 0.0 0.0 0.00 0.00 0.00 78 1013.4
20260504040524 43 0 0.0 0.0 0.00 0.00 0.00 77 1013.4
20260504040004 43 0 0.0 0.0 0.00 0.00 0.00 77 1013.4
20260504035503 43 0 0.0 0.0 0.00 0.00 0.00 76 1013.4
20260504035003 44 0 0.0 0.0 0.00 0.00 0.00 77 1013.4
20260504034525 44 0 0.0 0.0 0.00 0.00 0.00 75 1013.0
20260504034003 44 0 0.0 0.0 0.00 0.00 0.00 76 1013.4
20260504033504 44 0 0.0 0.0 0.00 0.00 0.00 75 1013.4
20260504033003 44 0 0.0 0.0 0.00 0.00 0.00 76 1013.0
20260504032503 44 0 0.0 0.0 0.00 0.00 0.00 75 1013.0
20260504032003 44 0 0.0 0.0 0.00 0.00 0.00 75 1013.0
20260504031503 45 0 0.0 0.0 0.00 0.00 0.00 74 1013.0
20260504031003 45 0 0.0 0.0 0.00 0.00 0.00 73 1013.0
20260504030524 45 0 0.0 0.0 0.00 0.00 0.00 73 1013.4
20260504030003 45 0 0.0 0.0 0.00 0.00 0.00 72 1013.4
20260504025503 45 0 0.0 0.0 0.00 0.00 0.00 72 1013.0
20260504025003 46 0 0.0 0.0 0.00 0.00 0.00 70 1013.0
20260504024503 46 0 0.0 0.0 0.00 0.00 0.00 70 1013.0
20260504024003 46 0 0.0 0.0 0.00 0.00 0.00 69 1013.0
20260504023503 46 0 0.0 0.0 0.00 0.00 0.00 69 1013.0
20260504023024 46 0 0.0 0.0 0.00 0.00 0.00 69 1013.0
20260504022524 46 0 0.0 0.0 0.00 0.00 0.00 68 1013.0
20260504022003 46 0 0.0 0.0 0.00 0.00 0.00 67 1013.0
20260504021524 47 0 0.0 0.0 0.00 0.00 0.00 68 1013.0
20260504021003 47 0 0.0 0.0 0.00 0.00 0.00 65 1012.7
20260504020503 47 0 0.0 0.0 0.00 0.00 0.00 65 1013.0
20260504020003 48 0 0.0 0.0 0.00 0.00 0.00 65 1013.0
20260504015524 48 0 0.0 0.0 0.00 0.00 0.00 65 1013.0
20260504015003 48 0 0.0 0.0 0.00 0.00 0.00 66 1012.7
20260504014503 48 0 0.0 0.0 0.00 0.00 0.00 64 1013.0
20260504014003 49 0 0.0 0.0 0.00 0.00 0.00 64 1012.7
20260504013503 49 0 0.0 0.0 0.00 0.00 0.00 63 1012.7
20260504013003 49 0 0.0 0.0 0.00 0.00 0.00 60 1012.7
20260504012505 50 0 0.0 0.0 0.00 0.00 0.00 58 1012.7
20260504012005 50 0 0.0 0.0 0.00 0.00 0.00 55 1012.7
20260504011505 50 0 0.0 0.0 0.00 0.00 0.00 55 1012.3
20260504011005 51 0 0.0 0.0 0.00 0.00 0.00 51 1012.7
20260504010505 51 0 0.0 0.0 0.00 0.00 0.00 47 1012.7
20260504010005 52 0 0.0 0.0 0.00 0.00 0.00 47 1012.7
20260504005505 52 0 0.0 0.0 0.00 0.00 0.00 47 1012.7
20260504005026 52 0 0.0 0.0 0.00 0.00 0.00 47 1012.7
20260504004505 53 0 0.0 0.0 0.00 0.00 0.00 46 1012.7
20260504004025 53 0 0.0 0.0 0.00 0.00 0.00 47 1012.7
20260504003505 53 0 0.0 0.0 0.00 0.00 0.00 44 1012.3
20260504003005 53 0 0.0 0.0 0.00 0.00 0.00 45 1012.3
20260504002504 54 0 0.0 0.0 0.00 0.00 0.00 45 1012.3
20260504002004 54 0 0.0 0.0 0.00 0.00 0.00 44 1012.3
20260504001504 54 0 0.0 0.0 0.00 0.00 0.00 43 1012.3
20260504001004 54 0 0.0 0.0 0.00 0.00 0.00 43 1012.3
20260504000504 55 0 0.0 0.0 0.00 0.00 0.00 43 1012.0
20260504000025 55 0 0.0 0.0 0.00 0.00 0.00 42 1012.0
20260503235506 56 0 0.0 0.0 0.00 0.00 0.00 41 1012.3
20260503235026 56 0 0.0 0.0 0.00 0.00 0.00 41 1012.0
20260503234504 57 0 0.0 0.0 0.00 0.00 0.00 39 1012.0
20260503234027 57 0 0.0 0.0 0.00 0.00 0.00 39 1011.7
20260503233504 57 0 0.0 0.0 0.00 0.00 0.00 38 1012.0
20260503233004 58 0 0.0 0.0 0.00 0.00 0.00 37 1012.0
20260503232525 58 0 0.0 0.0 0.00 0.00 0.00 38 1011.7
20260503232004 58 0 0.0 0.0 0.00 0.00 0.00 38 1012.0
20260503231525 58 0 0.0 0.0 0.00 0.00 0.00 38 1012.0
20260503231004 59 0 0.0 0.0 0.00 0.00 0.00 38 1012.0
20260503230504 59 0 0.0 0.0 0.00 0.00 0.00 35 1012.0
20260503230004 59 0 0.0 0.0 0.00 0.00 0.00 37 1011.7
20260503225504 60 0 0.0 0.0 0.00 0.00 0.00 36 1011.7
20260503225004 60 0 0.0 0.0 0.00 0.00 0.00 34 1012.0
20260503224504 61 0 0.0 0.0 0.00 0.00 0.00 34 1011.7
20260503224004 61 0 0.0 0.0 0.00 0.00 0.00 35 1011.7
20260503223504 61 0 0.0 0.0 0.00 0.00 0.00 34 1011.7
20260503223004 62 0 0.0 0.0 0.00 0.00 0.00 34 1012.0
20260503222504 62 0 0.0 0.0 0.00 0.00 0.00 34 1011.7
20260503222004 62 0 0.0 0.0 0.00 0.00 0.00 35 1011.7
20260503221504 62 0 0.0 0.0 0.00 0.00 0.00 35 1011.7
20260503221004 63 0 0.0 0.0 0.00 0.00 0.00 34 1012.0
20260503220525 63 0 0.0 0.0 0.00 0.00 0.00 33 1012.0
20260503220004 63 0 0.0 0.0 0.00 0.00 0.00 33 1012.0
20260503215525 63 0 0.0 0.0 0.00 0.00 0.00 33 1011.7
20260503215004 63 0 0.0 0.0 0.00 0.00 0.00 31 1012.0
20260503214504 63 0 0.0 0.0 0.00 0.00 0.00 33 1012.0
20260503214004 63 0 0.0 0.0 0.00 0.00 0.00 30 1011.7
20260503213504 63 0 0.0 0.0 0.00 0.00 0.00 34 1011.7
20260503213004 63 0 0.0 0.0 0.00 0.00 0.00 31 1011.7
20260503212504 64 0 0.0 0.0 0.00 0.00 0.00 33 1011.7
20260503212004 64 0 0.0 0.0 0.00 0.00 0.00 32 1011.7
20260503211504 64 0 0.0 0.0 0.00 0.00 0.00 32 1011.7
20260503211004 64 0 0.0 0.0 0.00 0.00 0.00 34 1011.7
20260503210504 65 0 0.0 0.0 0.00 0.00 0.00 33 1011.7
20260503210005 65 0 0.0 0.0 0.00 0.00 0.00 32 1011.7
20260503205504 65 0 0.0 0.0 0.00 0.00 0.00 31 1011.7
20260503205004 65 0 0.0 0.0 0.00 0.00 0.00 32 1011.7
20260503204504 65 0 0.0 0.0 0.00 0.00 0.00 35 1011.7
20260503204004 65 0 0.0 0.0 0.00 0.00 0.00 34 1011.3
20260503203504 64 0 0.0 0.0 0.00 0.00 0.00 32 1011.7
20260503203004 64 0 0.0 0.0 0.00 0.00 0.00 31 1011.7
20260503202504 64 0 0.0 0.0 0.00 0.00 0.00 31 1011.7
20260503202003 64 0 0.0 0.0 0.00 0.00 0.00 33 1011.7
20260503201504 65 0 0.0 0.0 0.00 0.00 0.00 31 1011.7
20260503201004 64 0 0.0 0.0 0.00 0.00 0.00 29 1011.7
20260503200525 64 0 0.0 0.0 0.00 0.00 0.00 31 1012.0
20260503200004 64 0 0.0 0.0 0.00 0.00 0.00 33 1011.7
20260503195503 64 0 0.0 0.0 0.00 0.00 0.00 29 1011.7
20260503195003 64 0 0.0 0.0 0.00 0.00 0.00 32 1012.0
20260503194525 64 0 0.0 0.0 0.00 0.00 0.00 33 1012.0
20260503194004 63 0 0.0 0.0 0.00 0.00 0.00 33 1012.0
20260503193503 63 0 0.0 0.0 0.00 0.00 0.00 33 1012.3
20260503193003 62 0 0.0 0.0 0.00 0.00 0.00 32 1012.0
20260503192504 62 0 0.0 0.0 0.00 0.00 0.00 33 1012.3
20260503192025 62 0 0.0 0.0 0.00 0.00 0.00 31 1012.7
20260503191504 63 0 0.0 0.0 0.00 0.00 0.00 32 1012.3
20260503191004 63 0 0.0 0.0 0.00 0.00 0.00 30 1012.3
20260503190525 63 0 0.0 0.0 0.00 0.00 0.00 32 1012.3
20260503190024 63 0 0.0 0.0 0.00 0.00 0.00 33 1012.3
20260503185503 63 0 0.0 0.0 0.00 0.00 0.00 34 1012.7
20260503185003 62 0 0.0 0.0 0.00 0.00 0.00 29 1012.3
20260503184504 62 0 0.0 0.0 0.00 0.00 0.00 30 1012.7
20260503184003 61 0 0.0 0.0 0.00 0.00 0.00 31 1012.7
20260503183503 61 0 0.0 0.0 0.00 0.00 0.00 32 1012.7
20260503183003 61 0 0.0 0.0 0.00 0.00 0.00 28 1012.7
20260503182503 61 0 0.0 0.0 0.00 0.00 0.00 35 1012.7
20260503182004 60 0 0.0 0.0 0.00 0.00 0.00 32 1012.7
20260503181504 60 0 0.0 0.0 0.00 0.00 0.00 32 1013.0
20260503181025 59 0 0.0 0.0 0.00 0.00 0.00 36 1013.0
20260503180503 58 0 0.0 0.0 0.00 0.00 0.00 33 1013.0
20260503180024 58 0 0.0 0.0 0.00 0.00 0.00 34 1013.0
20260503175503 59 0 0.0 0.0 0.00 0.00 0.00 34 1013.0
20260503175003 59 0 0.0 0.0 0.00 0.00 0.00 33 1013.4
20260503174503 59 0 0.0 0.0 0.00 0.00 0.00 32 1013.4
20260503174003 58 0 0.0 0.0 0.00 0.00 0.00 32 1013.4
20260503173503 58 0 0.0 0.0 0.00 0.00 0.00 35 1013.4
20260503173003 57 0 0.0 0.0 0.00 0.00 0.00 35 1013.4
20260503172503 58 0 0.0 0.0 0.00 0.00 0.00 37 1013.7
20260503172003 57 0 0.0 0.0 0.00 0.00 0.00 39 1013.7
20260503171524 58 0 0.0 0.0 0.00 0.00 0.00 34 1013.7
20260503171003 58 0 0.0 0.0 0.00 0.00 0.00 36 1013.7
20260503170508 58 0 0.0 0.0 0.00 0.00 0.00 33 1014.1
20260503151008 53 0 0.0 0.0 0.00 0.00 0.00 37 1015.1
20260503150507 53 0 0.0 0.0 0.00 0.00 0.00 40 1014.8
20260503131007 56 0 0.0 0.0 0.00 0.00 0.00 40 1015.4
20260503130507 56 0 0.0 0.0 0.00 0.00 0.00 40 1015.4
20260503110507 38 0 0.0 0.0 0.00 0.00 0.00 81 1015.1
20260503090506 38 0 0.0 0.0 0.00 0.00 0.00 77 1013.7
20260503081506 41 0 0.0 0.0 0.00 0.00 0.00 68 1013.7
20260503081006 41 0 0.0 0.0 0.00 0.00 0.00 69 1013.4
20260503080506 41 0 0.0 0.0 0.00 0.00 0.00 67 1013.4
20260503072506 43 0 0.0 0.0 0.00 0.00 0.00 64 1013.0
20260503072006 43 0 0.0 0.0 0.00 0.00 0.00 63 1013.0
20260503071527 43 0 0.0 0.0 0.00 0.00 0.00 63 1013.4
20260503071006 43 0 0.0 0.0 0.00 0.00 0.00 63 1013.0
20260503070527 43 0 0.0 0.0 0.00 0.01 0.00 63 1013.0